www.pogodaiklimat.ru
ПОГОДА в Алмалыке

Архив погоды в Алмалыке (Ташкентская область, Узбекистан)

Время
и дата
04:20 17.04
04:30 17.04
04:40 17.04
04:50 17.04
05:00 17.04
05:10 17.04
05:20 17.04
05:30 17.04
05:40 17.04
05:50 17.04
06:00 17.04
06:10 17.04
06:20 17.04
06:30 17.04
06:40 17.04
08:30 17.04
08:50 17.04
10:40 17.04
16:20 17.04
16:40 17.04
16:50 17.04
17:00 17.04
17:10 17.04
17:50 17.04
18:00 17.04
18:10 17.04
18:20 17.04
18:30 17.04
18:40 17.04
18:50 17.04
19:00 17.04
19:10 17.04
19:20 17.04
19:30 17.04
19:40 17.04
19:50 17.04
20:00 17.04
20:10 17.04
20:20 17.04
20:30 17.04
20:40 17.04
20:50 17.04
21:00 17.04
21:10 17.04
21:20 17.04
21:30 17.04
21:40 17.04
21:50 17.04
22:10 17.04
22:20 17.04
22:30 17.04
22:40 17.04
22:50 17.04
23:00 17.04
23:20 17.04
23:30 17.04
23:40 17.04
23:50 17.04
00:00 18.04
00:10 18.04
00:20 18.04
00:30 18.04
00:40 18.04
00:50 18.04
01:00 18.04
01:10 18.04
01:20 18.04
01:30 18.04
01:40 18.04
01:50 18.04
02:00 18.04
02:10 18.04
02:20 18.04
02:40 18.04
02:50 18.04
03:10 18.04
03:20 18.04
03:30 18.04
03:40 18.04
03:50 18.04
04:00 18.04
04:10 18.04
04:20 18.04
04:30 18.04
04:40 18.04
04:50 18.04
05:00 18.04
05:40 18.04
06:00 18.04
06:10 18.04
06:20 18.04
06:30 18.04
06:40 18.04
07:00 18.04
07:20 18.04
07:30 18.04
07:50 18.04
08:00 18.04
08:20 18.04
10:50 18.04
11:30 18.04
12:10 20.04
12:20 20.04
12:30 20.04
12:40 20.04
12:50 20.04
13:00 20.04
13:10 20.04
13:20 20.04
13:30 20.04
13:40 20.04
13:50 20.04
14:00 20.04
14:10 20.04
14:20 20.04
14:30 20.04
14:40 20.04
14:50 20.04
15:00 20.04
15:10 20.04
15:20 20.04
15:30 20.04
15:40 20.04
15:50 20.04
16:00 20.04
16:10 20.04
16:20 20.04
16:30 20.04
16:40 20.04
16:50 20.04
17:00 20.04
17:10 20.04
17:20 20.04
17:30 20.04
17:40 20.04
17:50 20.04
18:00 20.04
18:10 20.04
18:20 20.04
18:30 20.04
18:40 20.04
18:50 20.04
19:00 20.04
19:10 20.04
Ветер
(напр.,м/с)
Видимость Явления Солнечная радиация
(Вт/м2)
Т
(С)
Тd
(С)
f
(%)
Тe
(С)
Тes
(С)
Комфортность P
(гПа)
Po
(гПа)
Тmin
(С)
Tmax
(С)
R
(мм)
В 2.2
{4.0}
+10.6 +10.6 100 +9 +9 1022.2 962.1 +10.7 +10.4
В 2.5
{4.4}
+10.7 +10.7 100 +9 +9 1022.1 962.0 +10.7 +10.6
В 3.0
{5.0}
+10.8 +10.8 100 +9 +9 1022.2 962.1 +10.9 +10.7
В 2.5
{4.4}
+10.5 +10.5 100 +9 +9 1022.2 962.1 +10.8 +10.7
В 1.1
{2.6}
+10.5 +10.5 100 +10 +10 1022.3 962.2 +10.6 +10.5
СВ 1.0
{1.7}
+10.2 +10.2 100 +10 +10 1022.4 962.3 +10.5 +10.2
СВ 2.1
{3.6}
+9.4 +9.4 100 +7 +7 1022.6 962.5 +10.2 +9.4
СВ 2.2
{3.5}
+9.3 +9.3 100 +7 +7 1022.7 962.6 +9.5 +9.3
СВ 2.4
{3.9}
0.5 +9.1 +9.1 100 +7 +7 1023.0 962.9 +9.3 +9.1
В 2.1
{3.6}
5.7 +9.0 +9.0 100 +7 +7 1023.2 963.1 +9.1 +8.9
В 2.9
{4.4}
13.7 +9.3 +9.3 100 +7 +7 1023.3 963.2 +9.3 +9.0
В 2.9
{4.4}
23.4 +9.6 +9.6 100 +7 +7 1023.4 963.3 +9.6 +9.3
В 2.6
{3.7}
35.1 +9.9 +9.9 100 +8 +9 1023.4 963.3 +9.9 +9.6
В 2.2
{3.3}
57.0 +10.3 +10.3 100 +8 +9 1023.4 963.3 +10.3 +9.9
В 1.9
{3.1}
92.6 +10.9 +10.9 100 +9 +11 1023.4 963.3 +10.9 +10.3
В 2.5
{3.7}
427.4 +15.9 +15.9 100 +16 +24 1023.3 963.2 +15.9 +15.3
СВ 2.0
{3.2}
524.3 +16.8 +13.5 81 +17 +28 1023.2 963.1 +16.8 +16.2
В 1.4
{2.5}
814.5 +19.3 +10.8 58 +21 +39 комфорт 1022.8 962.7 +19.4 +18.9
СЗ 2.9
{4.2}
446.7 +21.6 +11.8 54 +24 +32 комфорт 1018.7 958.8 +21.7 +21.5
СЗ 2.7
{4.1}
386.0 +21.4 +10.5 50 +23 +30 комфорт 1018.5 958.6 +21.5 +21.4
С 2.2
{4.4}
347.2 +21.3 +10.5 50 +23 +30 комфорт 1018.5 958.6 +21.4 +21.3
С 2.3
{4.2}
313.8 +21.2 +11.1 52 +23 +29 комфорт 1018.5 958.6 +21.4 +21.2
С 2.3
{4.5}
288.0 +21.2 +12.2 56 +23 +29 комфорт 1018.4 958.5 +21.2 +21.1
С 2.5
{3.9}
158.1 +20.7 +11.9 57 +23 +26 комфорт 1018.2 958.3 +20.9 +20.7
С 2.0
{2.9}
130.3 +20.6 +11.6 56 +23 +26 комфорт 1018.2 958.3 +20.7 +20.6
С 1.2
{1.9}
99.6 +20.5 +12.0 58 +23 +25 комфорт 1018.2 958.3 +20.6 +20.5
СЗ 1.3
{2.2}
73.1 +20.4 +11.2 55 +23 +25 комфорт 1018.1 958.2 +20.5 +20.4
СЗ 0.5
{1.1}
49.7 +20.4 +11.9 58 +24 +25 комфорт 1018.1 958.2 +20.5 +20.4
С 0.9
{1.2}
30.5 +20.0 +12.4 62 +23 +24 комфорт 1018.0 958.1 +20.4 +20.0
С 0.8
{1.2}
16.2 +19.5 +12.0 62 +22 +22 комфорт 1018.0 958.1 +20.0 +19.5
СВ 0.6
{0.8}
6.2 +19.0 +13.4 70 +22 +22 комфорт 1017.9 958.0 +19.5 +19.0
В 0.5
{0.7}
0.6 +19.0 +12.2 64 +22 +22 комфорт 1017.9 958.0 +19.1 +19.0
ЮВ 0.5
{0.7}
+18.6 +12.6 68 +21 +21 комфорт 1017.9 958.0 +19.0 +18.7
В 0.6
{0.9}
+18.4 +12.0 66 +20 +20 1017.9 958.0 +18.6 +18.3
ЮВ 1.0
{1.9}
+18.3 +13.0 71 +20 +20 1018.0 958.1 +18.5 +18.3
ЮВ 1.3
{1.9}
+17.8 +13.5 76 +19 +19 1018.0 958.1 +18.3 +17.8
ЮВ 1.4
{2.2}
+17.4 +14.0 80 +18 +18 1018.0 958.1 +17.8 +17.4
ЮВ 1.5
{2.3}
+17.0 +15.3 90 +18 +18 1018.0 958.1 +17.4 +17.0
В 1.8
{2.7}
+16.9 +15.5 91 +17 +17 1018.1 958.2 +17.0 +16.9
В 1.8
{2.7}
+16.9 +14.9 88 +17 +17 1018.1 958.2 +17.0 +16.9
В 1.8
{2.6}
+16.8 +14.8 88 +17 +17 1018.1 958.2 +16.9 +16.8
В 1.6
{2.4}
+16.4 +16.2 99 +17 +17 1018.0 958.1 +16.8 +16.4
В 1.7
{2.5}
+16.1 +16.1 100 +16 +16 1018.0 958.1 +16.4 +16.1
СВ 2.1
{3.2}
+15.5 +15.5 100 +15 +15 1017.9 958.0 +16.1 +15.6
СВ 3.0
{4.5}
+15.4 +15.4 100 +15 +15 1017.9 958.0 +15.5 +15.3
В 2.8
{4.5}
+15.3 +15.3 100 +15 +15 1017.9 958.0 +15.4 +15.3
В 2.5
{4.1}
+15.6 +15.6 100 +15 +15 1017.9 958.0 +15.6 +15.3
В 2.6
{4.4}
+15.7 +15.7 100 +15 +15 1017.8 957.9 +15.7 +15.6
СВ 2.1
{3.0}
+14.9 +14.9 100 +14 +14 1017.7 957.8 +15.3 +14.9
В 2.1
{4.1}
+14.9 +14.9 100 +14 +14 1017.5 957.7 +14.9 +14.8
СВ 1.9
{4.0}
+14.5 +14.5 100 +14 +14 1017.5 957.7 +14.9 +14.5
СВ 2.7
{4.4}
+14.5 +14.5 100 +14 +14 1017.4 957.6 +14.6 +14.5
СВ 3.7
{5.6}
+14.4 +14.4 100 +13 +13 1017.3 957.5 +14.6 +14.5
СВ 3.6
{5.6}
+14.4 +14.4 100 +13 +13 1017.2 957.4 +14.6 +14.4
СВ 2.1
{3.6}
+13.9 +13.9 100 +13 +13 1017.0 957.2 +14.1 +13.9
В 1.9
{3.8}
+13.9 +13.9 100 +13 +13 1016.9 957.1 +14.0 +13.8
В 1.6
{3.5}
+13.8 +13.8 100 +13 +13 1016.8 957.0 +13.9 +13.8
В 2.3
{4.2}
+13.9 +13.9 100 +13 +13 1016.8 957.0 +13.9 +13.7
В 2.8
{5.5}
+14.1 +14.1 100 +13 +13 1016.6 956.8 +14.1 +13.9
В 3.0
{5.2}
+14.2 +14.2 100 +13 +13 1016.6 956.8 +14.2 +14.0
В 3.4
{6.1}
+14.2 +14.2 100 +13 +13 1016.5 956.7 +14.3 +14.1
В 3.9
{6.6}
+14.2 +14.2 100 +13 +13 1016.3 956.5 +14.2 +14.1
В 2.2
{5.1}
+14.1 +14.1 100 +13 +13 1016.2 956.4 +14.2 +14.1
В 3.1
{5.7}
+13.9 +13.9 100 +13 +13 1016.1 956.3 +14.1 +13.9
В 3.1
{6.1}
+14.1 +14.1 100 +13 +13 1016.0 956.2 +14.1 +13.9
В 2.9
{6.0}
+14.2 +14.2 100 +13 +13 1015.8 956.0 +14.2 +14.1
В 2.3
{5.1}
+14.1 +14.1 100 +13 +13 1015.8 956.0 +14.2 +14.1
СВ 1.5
{4.1}
+13.9 +13.9 100 +14 +14 1015.8 956.0 +14.2 +13.9
СВ 2.2
{4.4}
+13.6 +13.6 100 +13 +13 1015.6 955.8 +13.9 +13.6
В 2.4
{4.4}
+13.5 +13.5 100 +12 +12 1015.6 955.8 +13.9 +13.6
В 1.7
{3.0}
+13.5 +13.5 100 +13 +13 1015.4 955.7 +13.9 +13.5
В 1.8
{3.0}
+13.3 +13.3 100 +13 +13 1015.4 955.7 +13.5 +13.3
В 2.5
{4.7}
+13.4 +13.4 100 +12 +12 1015.3 955.6 +13.4 +13.3
В 2.3
{4.3}
+13.1 +13.1 100 +12 +12 1015.2 955.5 +13.3 +13.1
В 1.0
{3.1}
+12.9 +12.9 100 +13 +13 1015.2 955.5 +13.1 +12.9
В 1.6
{2.8}
+12.5 +12.5 100 +12 +12 1015.1 955.4 +12.7 +12.5
В 1.7
{2.6}
+12.3 +12.3 100 +11 +11 1015.1 955.4 +12.5 +12.3
В 1.5
{2.7}
+12.0 +12.0 100 +11 +11 1015.0 955.3 +12.3 +12.0
СВ 1.7
{2.4}
+11.7 +11.7 100 +11 +11 1014.9 955.2 +12.0 +11.7
СВ 2.0
{2.5}
+11.4 +11.4 100 +10 +10 1014.9 955.2 +11.7 +11.4
В 2.0
{3.8}
+11.7 +11.7 100 +10 +10 1014.8 955.1 +11.7 +11.4
В 1.3
{3.3}
+11.8 +11.8 100 +11 +11 1014.8 955.1 +11.8 +11.7
В 0.7
{2.4}
+11.6 +11.6 100 +12 +12 1014.7 955.0 +11.8 +11.5
В 2.0
{3.8}
+11.6 +11.6 100 +10 +10 1014.7 955.0 +11.6 +11.5
В 1.9
{3.0}
+11.5 +11.5 100 +10 +10 1014.7 955.0 +11.6 +11.5
В 1.9
{2.5}
+11.1 +11.1 100 +10 +10 1014.7 955.0 +11.5 +11.0
В 2.0
{3.0}
+11.0 +11.0 100 +10 +10 1014.7 955.0 +11.1 +11.0
В 2.8
{5.7}
0.6 +12.2 +12.2 100 +11 +11 1014.8 955.1 +12.2 +11.9
В 3.9
{6.6}
12.3 +12.4 +12.4 100 +10 +10 1014.8 955.1 +12.4 +12.0
В 3.5
{6.2}
20.3 +12.4 +12.4 100 +10 +10 1014.8 955.1 +12.5 +12.4
В 3.3
{5.2}
29.1 +12.3 +12.3 100 +10 +11 1014.9 955.2 +12.4 +12.3
В 3.2
{5.7}
69.3 +12.8 +12.8 100 +11 +12 1014.9 955.2 +12.7 +12.3
В 3.2
{5.9}
113.6 +13.4 +13.4 100 +12 +14 1014.9 955.2 +13.4 +12.8
В 1.6
{3.1}
175.4 +14.6 +14.6 100 +14 +18 1014.9 955.2 +14.6 +14.0
В 1.3
{3.4}
243.5 +15.1 +15.1 100 +15 +20 1014.8 955.1 +15.1 +14.8
В 1.7
{3.6}
274.8 +15.5 +15.5 100 +15 +21 1014.7 955.0 +15.5 +15.1
В 0.5
{1.2}
343.8 +17.2 +15.3 89 +19 +27 1014.6 954.9 +17.2 +16.2
СВ 0.6
{1.3}
383.3 +18.1 +15.7 86 +20 +29 1014.5 954.8 +18.1 +17.2
Ю 0.7
{1.4}
434.1 +19.2 +11.9 63 +22 +32 комфорт 1014.4 954.7 +19.1 +18.6
З 3.1
{4.8}
839.1 +21.1 +14.9 68 +24 +40 комфорт 1013.9 954.2 +21.1 +20.8
З 2.7
{5.0}
878.7 +21.9 +16.0 69 +26 +43 душно 1013.5 953.9 +21.8 +21.5
З 2.1
{3.7}
662.6 +25.5 +10.7 39 +26 +40 жарко 1010.1 950.6 +25.5 +25.4
З 2.3
{4.9}
630.0 +25.5 +13.1 46 +27 +40 жарко 1010.1 950.6 +25.5 +25.3
ЮЗ 2.2
{4.2}
530.4 +25.3 +11.1 41 +27 +38 жарко 1010.1 950.6 +25.5 +25.2
ЮЗ 2.1
{4.0}
551.8 +25.5 +11.4 41 +27 +38 жарко 1010.1 950.6 +25.6 +25.2
З 2.6
{5.3}
538.0 +25.4 +13.9 49 +28 +39 жарко 1010.1 950.6 +25.5 +25.3
ЮЗ 2.4
{4.1}
579.6 +25.7 +11.4 41 +27 +39 жарко 1010.2 950.7 +25.7 +25.4
З 2.5
{4.8}
791.4 +26.1 +12.4 43 +28 +44 жарко 1010.2 950.7 +26.0 +25.7
З 2.8
{4.8}
591.3 +25.9 +12.4 43 +27 +38 жарко 1010.2 950.7 +26.1 +25.9
З 2.5
{5.3}
484.9 +25.6 +11.1 40 +27 +37 жарко 1010.2 950.7 +25.9 +25.4
З 2.4
{4.4}
421.9 +25.6 +12.3 44 +27 +35 жарко 1010.2 950.7 +25.8 +25.5
З 2.8
{5.5}
490.9 +25.5 +14.3 50 +28 +37 жарко 1010.1 950.6 +25.8 +25.4
ЮЗ 2.7
{4.5}
558.9 +25.5 +15.6 54 +29 +40 душно 1010.1 950.6 +25.6 +25.4
ЮЗ 2.6
{5.1}
752.6 +26.0 +14.4 49 +28 +43 жарко 1010.0 950.5 +25.9 +25.5
З 3.0
{7.7}
786.1 +26.2 +14.8 49 +29 +44 жарко 1010.0 950.5 +26.3 +25.9
ЮЗ 3.5
{6.4}
601.4 +25.7 +14.7 51 +28 +39 жарко 1010.0 950.5 +26.3 +25.8
ЮЗ 3.2
{5.4}
681.4 +26.0 +14.3 49 +28 +40 жарко 1010.0 950.5 +26.0 +25.7
ЮЗ 3.0
{4.9}
686.6 +26.2 +14.6 49 +29 +42 жарко 1010.0 950.5 +26.2 +26.0
ЮЗ 2.6
{4.8}
604.2 +26.3 +13.4 45 +28 +40 жарко 1010.0 950.5 +26.4 +26.2
З 2.0
{4.4}
505.8 +26.0 +14.9 50 +29 +40 душно 1010.1 950.6 +26.3 +26.0
ЮЗ 2.1
{3.6}
332.4 +25.8 +12.8 45 +28 +35 жарко 1010.0 950.5 +26.0 +25.8
ЮЗ 2.7
{4.7}
294.0 +25.8 +13.0 45 +28 +34 жарко 1009.9 950.4 +25.8 +25.6
ЮЗ 2.5
{4.8}
285.6 +25.8 +12.3 43 +27 +33 жарко 1009.8 950.3 +25.9 +25.7
З 1.9
{3.5}
263.9 +25.7 +13.7 47 +28 +34 жарко 1009.8 950.3 +25.9 +25.6
ЮЗ 2.3
{3.5}
382.9 +25.8 +12.9 45 +28 +36 жарко 1009.9 950.4 +25.8 +25.5
ЮЗ 2.4
{4.3}
203.7 +25.3 +13.1 47 +27 +31 жарко 1009.9 950.4 +25.9 +25.3
ЮЗ 2.2
{3.3}
173.3 +25.2 +12.3 45 +27 +31 жарко 1009.9 950.4 +25.3 +25.2
ЮЗ 2.0
{3.2}
173.6 +25.1 +12.8 46 +27 +31 жарко 1009.9 950.4 +25.2 +25.0
ЮЗ 2.1
{3.3}
187.3 +25.1 +12.1 44 +27 +31 жарко 1009.9 950.4 +25.1 +25.0
ЮЗ 1.8
{2.9}
189.4 +25.1 +13.9 50 +27 +31 жарко 1010.1 950.6 +25.3 +25.1
ЮЗ 1.8
{3.0}
196.9 +25.3 +13.5 48 +27 +31 жарко 1010.2 950.7 +25.3 +25.1
ЮЗ 1.8
{2.8}
161.8 +25.1 +12.2 45 +27 +30 жарко 1010.2 950.7 +25.3 +25.1
ЮЗ 1.5
{2.4}
121.5 +25.0 +12.7 46 +27 +30 жарко 1010.3 950.8 +25.3 +25.0
З 1.7
{2.6}
95.3 +24.8 +13.6 50 +27 +29 жарко 1010.4 950.9 +25.0 +24.8
З 1.2
{2.0}
86.2 +24.7 +12.0 45 +26 +28 жарко 1010.4 950.9 +24.8 +24.7
ЮЗ 1.2
{2.0}
74.8 +24.9 +11.4 43 +26 +28 жарко 1010.4 950.9 +24.9 +24.7
ЮЗ 0.5
{1.4}
55.5 +24.7 +14.6 53 +27 +28 жарко 1010.3 950.8 +24.9 +24.7
З 1.5
{3.3}
40.9 +24.0 +13.4 52 +26 +27 жарко 1010.3 950.8 +24.7 +24.0
ЮЗ 2.1
{3.3}
32.7 +23.6 +14.2 56 +26 +27 жарко 1010.4 950.9 +24.0 +23.6
ЮЗ 2.2
{3.2}
30.7 +23.2 +13.7 55 +27 +28 душно 1010.4 950.9 +23.6 +23.1
ЮЗ 1.5
{2.6}
23.2 +23.3 +13.7 55 +27 +28 душно 1010.4 950.9 +23.3 +23.2
ЮЗ 1.7
{2.5}
17.4 +23.0 +15.6 63 +27 +27 душно 1010.4 950.9 +23.3 +23.1
ЮЗ 1.8
{2.9}
7.6 +22.6 +16.6 69 +27 +27 душно 1010.5 951.0 +23.0 +22.6
ЮЗ 1.6
{2.9}
1.0 +21.9 +17.2 75 +26 +26 душно 1010.5 951.0 +22.6 +21.9
Местоположение метеостанции Алмалык (Ташкентская область, Узбекистан): широта 40.87 долгота 69.57 высота над уровнем моря 0 м.
В архиве по умолчанию представлена погода в Алмалыке за последние 1-2 суток. Обновление информации о фактической погоде в базе происходит ежечасно! Архивные данные за месяц целиком и за предыдущие месяцы Вы можете получить, выбрав интересующий диапазон дат из раскрывающегося списка и нажав кнопку "Ввод!".
*Определитесь, кто Вы:
Внимание! Время в таблицах - местное (без учета летнего времени). Для получения всемирного времени необходимо вычесть поправку, которая равна 5 ч.
Смотрите также архив погоды на ближайших метеорологических станциях:
Партнеры нашего сайта:      
Пояснения к столбцам:
  • Ветер - указаны скорость ветра в м/с - средняя за 10 мин, порывы в срок и между сроками (в фигурных скобках) и направление, откуда дует ветер: С - северный,
  • СВ - северо-восточный, В - восточный, ЮВ - юго-восточный, Ю - южный, ЮЗ - юго-западный, З - западный, СЗ - северо-западный.
  • Видимость - горизонтальная дальность видимости в метрах или километрах. При видимости от 1 до 10 км при отсутствии осадков обычно наблюдается дымка, при ухудшении видимости до 1 км и менее - туман. В сухую погоду видимость может ухудшаться дымом, пылью или мглою.
  • Явления - указаны атмосферные явления, наблюдавшиеся в срок или в последний час перед сроком.
  • Солнечная радиация - мощность потока солнечного излучения на поверхность земли и предметов в Вт/м2.
  • T - Температура воздуха - температура, измеренная на высоте 2 м над землей.
  • Td - Температура точки росы - температура, при понижении до которой содержащийся в воздухе водяной пар достигнет насыщения.
  • f - Относительная влажность воздуха - влажноcть воздуха, измеренная на высоте 2 м над землей.
  • Te - Эффективная температура - температура, которую ощущает одетый по сезону человек в тени. Характеристика душности погоды. При расчете учитывается влияние влажности воздуха и скорости ветра на теплоощущения человека.
  • Tes - Эффективная температура на солнце - температура, которую ощущает человек, с поправкой на солнечный нагрев. Характеристика знойности погоды. Зависит от высоты солнца над горизонтом, облачности и скорости ветра. Ночью, в пасмурную погоду, а также при ветре 12 м/с и более поправка равна нулю.
  • P - Атмосферное давление - приведенное к уровню моря атмосферное давление.
  • Po - Атмосферное давление - измеренное на уровне метеостанции атмосферное давление.
  • Tmin - Минимальная температура - минимум температуры воздуха на высоте 2 м над землей.
  • Tmax - Максимальная температура - максимум температуры воздуха на высоте 2 м над землей.
  • R - Количество осадков - Количество выпавших осадков за период времени, мм. При наведении курсора мыши на число - период времени, за который выпало указанное количество осадков.